AB7AZ Weather Reports


time (UTC)temp
C
wind
direction
speed
KPH
gust
KPH
rain 1hr
cm
rain 24hr
cm
rain mn
cm
humidity
%
barometer
mb
20260504081720 21 98 0.0 0.0 0.00 0.00 0.00 38 1007.6
20260504080710 21 174 0.0 0.0 0.00 0.00 0.00 37 1007.7
20260504050409 23 253 3.2 14.5 0.00 0.00 0.00 24 1007.8
20260504045409 24 266 1.6 11.3 0.00 0.00 0.00 24 1007.7
20260504043217 25 191 6.4 16.1 0.00 0.00 0.00 22 1007.7
20260504042235 25 224 3.2 12.9 0.00 0.00 0.00 21 1007.5
20260504041252 25 167 6.4 29.0 0.00 0.00 0.00 20 1007.2
20260504040219 25 224 11.3 29.0 0.00 0.00 0.00 20 1007.1
20260504035156 26 246 9.7 22.5 0.00 0.00 0.00 20 1006.7
20260504034208 26 227 6.4 22.5 0.00 0.00 0.00 19 1006.5
20260504033144 26 217 11.3 22.5 0.00 0.00 0.00 19 1006.1
20260504032133 26 253 11.3 24.1 0.00 0.00 0.00 19 1006.0
20260504031144 26 147 9.7 24.1 0.00 0.00 0.00 19 1005.9
20260504030120 26 206 11.3 24.1 0.00 0.00 0.00 19 1005.7
20260504021737 27 217 14.5 27.4 0.00 0.00 0.00 18 1005.0
20260504020751 27 206 11.3 27.4 0.00 0.00 0.00 18 1004.8
20260504015717 28 217 11.3 27.4 0.00 0.00 0.00 17 1004.5
20260504014654 28 188 12.9 30.6 0.00 0.00 0.00 17 1004.2
20260504013633 28 229 14.5 30.6 0.00 0.00 0.00 16 1004.2
20260504012618 29 221 16.1 30.6 0.00 0.00 0.00 16 1004.1
20260504011602 29 278 17.7 30.6 0.00 0.00 0.00 16 1004.1
20260504010626 30 224 17.7 30.6 0.00 0.00 0.00 15 1004.2
20260504005650 30 195 14.5 24.1 0.00 0.00 0.00 15 1004.0
20260504003510 31 233 11.3 22.5 0.00 0.00 0.00 14 1004.0
20260504002435 31 174 6.4 17.7 0.00 0.00 0.00 14 1004.0
20260504001431 31 190 9.7 27.4 0.00 0.00 0.00 15 1004.1
20260504000436 31 220 14.5 27.4 0.00 0.00 0.00 15 1004.1
20260503234241 32 190 11.3 29.0 0.00 0.00 0.00 14 1004.0
20260503232110 31 253 14.5 25.7 0.00 0.00 0.00 15 1004.5
20260503225918 31 190 12.9 30.6 0.00 0.00 0.00 15 1004.7
20260503224942 31 144 11.3 30.6 0.00 0.00 0.00 14 1004.8
20260503223940 31 231 11.3 24.1 0.00 0.00 0.00 16 1005.1
20260503222913 32 190 8.0 24.1 0.00 0.00 0.00 16 1005.3
20260503220733 32 233 9.7 30.6 0.00 0.00 0.00 16 1005.7
20260503215741 32 103 11.3 30.6 0.00 0.00 0.00 17 1006.0
20260503214733 32 203 8.0 22.5 0.00 0.00 0.00 16 1006.0
20260503213713 31 227 14.5 29.0 0.00 0.00 0.00 19 1006.1
20260503212642 31 196 11.3 29.0 0.00 0.00 0.00 18 1006.4
20260503211608 31 217 8.0 24.1 0.00 0.00 0.00 19 1006.4
20260503210627 31 197 9.7 24.1 0.00 0.00 0.00 19 1006.7
20260503205556 32 212 9.7 27.4 0.00 0.00 0.00 19 1006.9
20260503204555 31 226 9.7 27.4 0.00 0.00 0.00 20 1007.0
20260503203612 31 206 9.7 24.1 0.00 0.00 0.00 18 1007.0
20260503202556 31 229 9.7 24.1 0.00 0.00 0.00 18 1007.1
20260503201605 31 152 9.7 22.5 0.00 0.00 0.00 17 1007.2
20260503200611 31 240 6.4 22.5 0.00 0.00 0.00 18 1007.4
20260503194439 31 219 8.0 20.9 0.00 0.00 0.00 18 1007.7
20260503193411 30 211 9.7 22.5 0.00 0.00 0.00 21 1007.9
20260503192408 31 219 9.7 22.5 0.00 0.00 0.00 20 1008.2
20260503190234 30 226 8.0 24.1 0.00 0.00 0.00 21 1008.4
20260503185203 30 166 6.4 17.7 0.00 0.00 0.00 22 1008.6
20260503184211 30 219 6.4 8.0 0.00 0.00 0.00 22 1008.8
20260503183327 30 142 8.0 29.0 0.00 0.00 0.00 21 1008.9
20260503182316 30 49 8.0 27.4 0.00 0.00 0.00 21 1009.0
20260503181334 30 229 4.8 25.7 0.00 0.00 0.00 21 1009.1
20260503180334 29 160 9.7 24.1 0.00 0.00 0.00 23 1009.4
20260503174156 28 176 8.0 19.3 0.00 0.00 0.00 25 1009.6
20260503173139 27 58 9.7 20.9 0.00 0.00 0.00 26 1009.6
20260503172135 27 69 4.8 20.9 0.00 0.00 0.00 26 1009.8
20260503171151 27 78 8.0 22.5 0.00 0.00 0.00 27 1009.7
20260503170215 27 56 8.0 25.7 0.00 0.00 0.00 27 1009.8
20260503131343 23 343 9.7 19.3 0.00 0.00 0.00 28 1009.3